Time,TemperatureF,DewpointF,PressureIn,WindDirection,WindDirectionDegrees,WindSpeedMPH,WindSpeedGustMPH,Humidity,HourlyPrecipIn,Conditions,Clouds,dailyrainin,SoftwareType,DateUTC
2013-04-30 00:02:00,33.1,19.1,30.00,West,273,12.7,12.7,56,0.00,RA,,0.00,WeatherDisplay:10.37,2013-04-30 07:02:00,
2013-04-30 00:07:00,32.7,19.9,30.00,West,279,16.0,16.0,59,0.00,RA,,0.00,WeatherDisplay:10.37,2013-04-30 07:07:00,
2013-04-30 00:12:00,32.9,20.1,30.00,West,279,9.2,9.2,59,0.00,CLR,,0.00,WeatherDisplay:10.37,2013-04-30 07:12:00,
2013-04-30 00:17:00,32.5,20.1,30.00,West,273,11.5,11.5,60,0.00,CLR,,0.00,WeatherDisplay:10.37,2013-04-30 07:17:00,
2013-04-30 00:22:00,32.3,20.3,30.00,West,273,5.0,5.0,61,0.00,CLR,,0.00,WeatherDisplay:10.37,2013-04-30 07:22:00,
2013-04-30 00:27:00,32.0,20.4,30.00,West,273,3.5,3.5,62,0.00,CLR,,0.00,WeatherDisplay:10.37,2013-04-30 07:27:00,
2013-04-30 00:32:00,31.6,20.1,30.00,West,273,3.5,3.5,62,0.00,CLR,,0.00,WeatherDisplay:10.37,2013-04-30 07:32:00,
2013-04-30 00:37:00,31.4,19.5,30.01,West,273,3.5,3.5,61,0.00,CLR,,0.00,WeatherDisplay:10.37,2013-04-30 07:37:00,
2013-04-30 00:42:00,31.4,18.7,30.01,West,273,4.6,4.6,59,0.00,CLR,,0.00,WeatherDisplay:10.37,2013-04-30 07:42:00,
2013-04-30 00:47:00,31.7,18.6,30.01,West,273,3.5,3.5,58,0.00,CLR,,0.00,WeatherDisplay:10.37,2013-04-30 07:47:00,
2013-04-30 00:52:00,31.9,18.4,30.01,West,273,3.5,3.5,57,0.00,CLR,,0.00,WeatherDisplay:10.37,2013-04-30 07:52:00,
2013-04-30 00:57:00,32.2,18.7,30.01,West,273,4.0,4.0,57,0.00,CLR,,0.00,WeatherDisplay:10.37,2013-04-30 07:57:00,
2013-04-30 01:02:00,32.4,18.8,30.00,West,273,4.6,4.6,57,0.00,OVC,,0.00,WeatherDisplay:10.37,2013-04-30 08:02:00,
2013-04-30 01:07:00,32.8,19.2,30.00,WNW,284,5.8,5.8,57,0.00,OVC,,0.00,WeatherDisplay:10.37,2013-04-30 08:07:00,
2013-04-30 01:12:00,32.9,18.9,30.00,WNW,284,4.6,4.6,56,0.00,OVC,,0.00,WeatherDisplay:10.37,2013-04-30 08:12:00,
2013-04-30 01:17:00,33.1,18.7,30.00,WNW,287,6.9,6.9,55,0.00,OVC,,0.00,WeatherDisplay:10.37,2013-04-30 08:17:00,
2013-04-30 01:22:00,33.3,18.4,30.00,West,281,5.0,5.0,54,0.00,OVC,,0.00,WeatherDisplay:10.37,2013-04-30 08:22:00,
2013-04-30 01:27:00,33.4,18.9,30.00,West,281,6.9,6.9,55,0.00,OVC,,0.00,WeatherDisplay:10.37,2013-04-30 08:27:00,
2013-04-30 01:32:00,33.4,18.1,30.00,West,281,5.0,5.0,53,0.00,OVC,,0.00,WeatherDisplay:10.37,2013-04-30 08:32:00,
2013-04-30 01:37:00,33.5,18.2,29.99,West,280,3.5,3.5,53,0.00,OVC,,0.00,WeatherDisplay:10.37,2013-04-30 08:37:00,
2013-04-30 01:42:00,33.5,18.2,29.99,West,280,3.5,3.5,53,0.00,OVC,,0.00,WeatherDisplay:10.37,2013-04-30 08:42:00,
2013-04-30 01:47:00,33.5,17.7,29.99,West,281,3.5,3.5,52,0.00,OVC,,0.00,WeatherDisplay:10.37,2013-04-30 08:47:00,
2013-04-30 01:52:00,33.5,18.2,29.99,West,280,3.5,3.5,53,0.00,OVC,,0.00,WeatherDisplay:10.37,2013-04-30 08:52:00,
2013-04-30 01:57:00,33.4,18.9,30.00,West,281,3.5,3.5,55,0.00,OVC,,0.00,WeatherDisplay:10.37,2013-04-30 08:57:00,
2013-04-30 02:02:00,33.4,19.4,30.00,West,281,11.5,11.5,56,0.00,OVC,,0.00,WeatherDisplay:10.37,2013-04-30 09:02:00,
2013-04-30 02:07:00,33.5,19.9,29.99,West,276,11.5,11.5,57,0.00,OVC,,0.00,WeatherDisplay:10.37,2013-04-30 09:07:00,
2013-04-30 02:12:00,33.5,19.9,30.00,West,275,11.0,11.0,57,0.00,OVC,,0.00,WeatherDisplay:10.37,2013-04-30 09:12:00,
2013-04-30 02:17:00,33.4,19.4,30.00,West,279,11.5,11.5,56,0.00,OVC,,0.00,WeatherDisplay:10.37,2013-04-30 09:17:00,
2013-04-30 02:22:00,33.5,19.5,30.00,WNW,284,15.0,15.0,56,0.00,OVC,,0.00,WeatherDisplay:10.37,2013-04-30 09:22:00,
2013-04-30 02:27:00,33.5,19.9,30.00,WNW,288,12.7,12.7,57,0.00,OVC,,0.00,WeatherDisplay:10.37,2013-04-30 09:27:00,
2013-04-30 02:32:00,33.4,20.2,30.01,WNW,293,10.4,10.4,58,0.00,OVC,,0.00,WeatherDisplay:10.37,2013-04-30 09:32:00,
2013-04-30 02:37:00,33.2,20.4,30.01,WNW,291,3.0,3.0,59,0.00,OVC,,0.00,WeatherDisplay:10.37,2013-04-30 09:37:00,
2013-04-30 02:43:00,33.0,20.2,30.01,NW,311,3.5,3.5,59,0.00,OVC,,0.00,WeatherDisplay:10.37,2013-04-30 09:43:00,
2013-04-30 02:48:00,32.7,20.3,30.01,NW,310,1.1,1.1,60,0.00,OVC,,0.00,WeatherDisplay:10.37,2013-04-30 09:48:00,
2013-04-30 02:53:00,32.4,20.0,30.01,WNW,283,3.5,4.5,60,0.00,OVC,,0.00,WeatherDisplay:10.37,2013-04-30 09:53:00,
2013-04-30 02:58:00,32.3,20.3,30.02,WNW,283,3.5,3.5,61,0.00,OVC,,0.00,WeatherDisplay:10.37,2013-04-30 09:58:00,
2013-04-30 03:03:00,32.4,20.4,30.04,WNW,284,11.5,11.5,61,0.00,OVC,,0.00,WeatherDisplay:10.37,2013-04-30 10:03:00,
2013-04-30 03:08:00,32.5,20.1,30.03,West,272,11.5,11.5,60,0.00,OVC,,0.00,WeatherDisplay:10.37,2013-04-30 10:08:00,
2013-04-30 03:13:00,32.6,20.2,30.03,West,275,12.7,12.7,60,0.00,OVC,,0.00,WeatherDisplay:10.37,2013-04-30 10:13:00,
2013-04-30 03:18:00,32.7,20.7,30.03,West,274,7.0,7.0,61,0.00,OVC,,0.00,WeatherDisplay:10.37,2013-04-30 10:18:00,
2013-04-30 03:23:00,32.6,20.6,30.03,West,276,10.4,10.4,61,0.00,OVC,,0.00,WeatherDisplay:10.37,2013-04-30 10:23:00,
2013-04-30 03:28:00,32.6,19.8,30.03,West,275,16.1,16.1,59,0.00,OVC,,0.00,WeatherDisplay:10.37,2013-04-30 10:28:00,
2013-04-30 03:33:00,32.7,19.5,30.04,WNW,296,18.4,18.4,58,0.00,OVC,,0.00,WeatherDisplay:10.37,2013-04-30 10:33:00,
2013-04-30 03:38:00,32.6,20.2,30.04,West,277,13.8,13.8,60,0.00,OVC,,0.00,WeatherDisplay:10.37,2013-04-30 10:38:00,
2013-04-30 03:43:00,32.6,20.6,30.04,WNW,287,12.7,12.7,61,0.00,OVC,,0.00,WeatherDisplay:10.37,2013-04-30 10:43:00,
2013-04-30 03:48:00,32.4,20.8,30.05,WNW,294,10.4,10.4,62,0.00,OVC,,0.00,WeatherDisplay:10.37,2013-04-30 10:48:00,
2013-04-30 03:53:00,32.3,21.1,30.05,WNW,286,9.2,9.2,63,0.00,OVC,,0.00,WeatherDisplay:10.37,2013-04-30 10:53:00,
2013-04-30 03:58:00,32.1,21.3,30.05,WNW,284,11.5,11.5,64,0.00,OVC,,0.00,WeatherDisplay:10.37,2013-04-30 10:58:00,
2013-04-30 04:03:00,31.9,21.5,30.04,West,280,16.1,16.1,65,0.00,BKN,,0.00,WeatherDisplay:10.37,2013-04-30 11:03:00,
2013-04-30 04:08:00,31.9,21.5,30.04,West,281,6.9,6.9,65,0.00,BKN,,0.00,WeatherDisplay:10.37,2013-04-30 11:08:00,
2013-04-30 04:13:00,31.6,21.5,30.04,West,281,4.6,4.6,66,0.00,BKN,,0.00,WeatherDisplay:10.37,2013-04-30 11:13:00,
2013-04-30 04:18:00,31.4,21.3,30.05,WNW,284,13.8,13.8,66,0.00,BKN,,0.00,WeatherDisplay:10.37,2013-04-30 11:18:00,
2013-04-30 04:23:00,31.2,21.5,30.05,WNW,283,3.5,3.5,67,0.00,BKN,,0.00,WeatherDisplay:10.37,2013-04-30 11:23:00,
2013-04-30 04:28:00,30.9,21.6,30.05,WNW,283,3.5,3.5,68,0.00,BKN,,0.00,WeatherDisplay:10.37,2013-04-30 11:28:00,
2013-04-30 04:33:00,30.5,21.5,30.05,WNW,284,3.5,3.5,69,0.00,BKN,,0.00,WeatherDisplay:10.37,2013-04-30 11:33:00,
2013-04-30 04:38:00,30.3,21.3,30.06,WNW,284,1.1,1.1,69,0.00,BKN,,0.00,WeatherDisplay:10.37,2013-04-30 11:38:00,
2013-04-30 04:43:00,30.1,21.5,30.06,WNW,284,0.0,0.0,70,0.00,BKN,,0.00,WeatherDisplay:10.37,2013-04-30 11:43:00,
2013-04-30 04:48:00,29.8,21.2,30.06,West,277,0.0,0.0,70,0.00,BKN,,0.00,WeatherDisplay:10.37,2013-04-30 11:48:00,
2013-04-30 04:53:00,29.5,21.3,30.07,West,276,0.0,0.0,71,0.00,BKN,,0.00,WeatherDisplay:10.37,2013-04-30 11:53:00,
2013-04-30 04:58:00,29.3,21.1,30.06,West,277,0.0,0.0,71,0.00,BKN,,0.00,WeatherDisplay:10.37,2013-04-30 11:58:00,
2013-04-30 05:03:00,29.1,21.2,30.06,West,277,2.3,0.0,72,0.00,SCT,,0.00,WeatherDisplay:10.37,2013-04-30 12:03:00,
2013-04-30 05:08:00,28.9,21.0,30.07,West,277,0.0,0.0,72,0.00,SCT,,0.00,WeatherDisplay:10.37,2013-04-30 12:08:00,
2013-04-30 05:13:00,28.7,21.1,30.07,West,277,0.0,0.0,73,0.00,SCT,,0.00,WeatherDisplay:10.37,2013-04-30 12:13:00,
2013-04-30 05:18:00,28.4,20.8,30.08,West,277,1.1,1.1,73,0.00,SCT,,0.00,WeatherDisplay:10.37,2013-04-30 12:18:00,
2013-04-30 05:23:00,28.3,21.1,30.08,West,277,3.5,3.5,74,0.00,SCT,,0.00,WeatherDisplay:10.37,2013-04-30 12:23:00,
2013-04-30 05:28:00,28.2,21.0,30.08,West,277,3.5,3.5,74,0.00,SCT,,0.00,WeatherDisplay:10.37,2013-04-30 12:28:00,
2013-04-30 05:33:00,28.1,21.2,30.08,West,276,3.5,3.5,75,0.00,SCT,,0.00,WeatherDisplay:10.37,2013-04-30 12:33:00,
2013-04-30 05:38:00,28.1,21.2,30.08,West,276,4.6,4.6,75,0.00,SCT,,0.00,WeatherDisplay:10.37,2013-04-30 12:38:00,
2013-04-30 05:43:00,28.3,21.1,30.08,West,277,3.5,3.5,74,0.00,SCT,,0.00,WeatherDisplay:10.37,2013-04-30 12:43:00,
2013-04-30 05:48:00,28.5,21.6,30.08,West,276,4.0,4.0,75,0.00,SCT,,0.00,WeatherDisplay:10.37,2013-04-30 12:48:00,
2013-04-30 05:53:00,28.7,21.5,30.08,West,277,3.5,3.5,74,0.00,SCT,,0.00,WeatherDisplay:10.37,2013-04-30 12:53:00,
2013-04-30 05:58:00,28.8,21.9,30.08,West,276,3.5,3.5,75,0.00,SCT,,0.00,WeatherDisplay:10.37,2013-04-30 12:58:00,
2013-04-30 06:04:00,28.8,21.9,30.09,West,277,3.5,3.5,75,0.00,BKN,,0.00,WeatherDisplay:10.37,2013-04-30 13:04:00,
2013-04-30 06:09:00,29.0,22.1,30.09,West,276,3.5,3.5,75,0.00,BKN,,0.00,WeatherDisplay:10.37,2013-04-30 13:09:00,
2013-04-30 06:14:00,29.3,22.7,30.09,West,277,3.5,3.5,76,0.00,BKN,,0.00,WeatherDisplay:10.37,2013-04-30 13:14:00,
2013-04-30 06:19:00,29.7,23.4,30.09,West,277,3.5,3.5,77,0.00,BKN,,0.00,WeatherDisplay:10.37,2013-04-30 13:19:00,
2013-04-30 06:24:00,30.2,24.2,30.09,West,277,3.5,3.5,78,0.00,BKN,,0.00,WeatherDisplay:10.37,2013-04-30 13:24:00,
2013-04-30 06:29:00,30.7,24.3,30.09,West,277,2.3,2.3,77,0.00,BKN,,0.00,WeatherDisplay:10.37,2013-04-30 13:29:00,
2013-04-30 06:34:00,31.1,24.7,30.09,West,276,4.6,4.6,77,0.00,BKN,,0.00,WeatherDisplay:10.37,2013-04-30 13:34:00,
2013-04-30 06:39:00,31.3,24.3,30.09,West,276,5.8,5.8,75,0.00,BKN,,0.00,WeatherDisplay:10.37,2013-04-30 13:39:00,
2013-04-30 06:44:00,31.5,24.8,30.09,West,276,3.5,3.5,76,0.00,BKN,,0.00,WeatherDisplay:10.37,2013-04-30 13:44:00,
2013-04-30 06:49:00,31.7,24.4,30.09,West,267,10.0,10.0,74,0.00,BKN,,0.00,WeatherDisplay:10.37,2013-04-30 13:49:00,
2013-04-30 06:54:00,31.8,24.8,30.09,West,271,6.0,6.0,75,0.00,BKN,,0.00,WeatherDisplay:10.37,2013-04-30 13:54:00,
2013-04-30 06:59:00,31.8,24.5,30.10,West,271,7.0,7.0,74,0.00,BKN,,0.00,WeatherDisplay:10.37,2013-04-30 13:59:00,
2013-04-30 07:04:00,31.8,24.8,30.10,West,265,6.9,6.9,75,0.00,BKN,,0.00,WeatherDisplay:10.37,2013-04-30 14:04:00,
2013-04-30 07:09:00,32.0,25.0,30.10,West,277,11.5,11.5,75,0.00,BKN,,0.00,WeatherDisplay:10.37,2013-04-30 14:09:00,
2013-04-30 07:14:00,32.4,25.4,30.10,West,261,6.9,6.9,75,0.00,OVC,,0.00,WeatherDisplay:10.37,2013-04-30 14:14:00,
2013-04-30 07:19:00,32.5,25.5,30.10,West,279,17.0,17.0,75,0.00,OVC,,0.00,WeatherDisplay:10.37,2013-04-30 14:19:00,
2013-04-30 07:24:00,32.5,25.5,30.11,West,277,13.0,13.0,75,0.00,OVC,,0.00,WeatherDisplay:10.37,2013-04-30 14:24:00,
2013-04-30 07:29:00,32.5,25.5,30.11,WNW,294,13.8,13.8,75,0.00,OVC,,0.00,WeatherDisplay:10.37,2013-04-30 14:29:00,
2013-04-30 07:34:00,32.7,25.3,30.11,West,273,17.3,17.3,74,0.00,OVC,,0.00,WeatherDisplay:10.37,2013-04-30 14:34:00,
2013-04-30 07:39:00,32.9,25.5,30.11,West,279,17.3,17.3,74,0.00,OVC,,0.00,WeatherDisplay:10.37,2013-04-30 14:39:00,
2013-04-30 07:44:00,32.5,25.5,30.11,West,274,16.1,16.1,75,0.00,OVC,,0.00,WeatherDisplay:10.37,2013-04-30 14:44:00,
2013-04-30 07:49:00,32.5,25.8,30.11,WNW,284,11.5,11.5,76,0.00,OVC,,0.00,WeatherDisplay:10.37,2013-04-30 14:49:00,
2013-04-30 07:54:00,32.6,25.6,30.11,West,279,15.0,15.0,75,0.00,OVC,,0.00,WeatherDisplay:10.37,2013-04-30 14:54:00,
2013-04-30 07:59:00,32.2,25.5,30.13,WNW,289,11.5,11.5,76,0.00,OVC,,0.00,WeatherDisplay:10.37,2013-04-30 14:59:00,
2013-04-30 08:04:00,32.3,25.6,30.13,West,277,17.0,17.0,76,0.00,SCT,,0.00,WeatherDisplay:10.37,2013-04-30 15:04:00,
2013-04-30 08:09:00,32.3,24.9,30.14,WNW,287,19.6,19.6,74,0.00,SCT,,0.00,WeatherDisplay:10.37,2013-04-30 15:09:00,
2013-04-30 08:14:00,32.4,25.0,30.14,WNW,284,13.8,13.8,74,0.00,SCT,,0.00,WeatherDisplay:10.37,2013-04-30 15:14:00,
2013-04-30 08:19:00,32.6,25.2,30.13,WNW,283,6.9,6.9,74,0.00,SCT,,0.00,WeatherDisplay:10.37,2013-04-30 15:19:00,
2013-04-30 08:24:00,32.7,25.6,30.13,WNW,291,9.2,9.2,75,0.00,SCT,,0.00,WeatherDisplay:10.37,2013-04-30 15:24:00,
2013-04-30 08:29:00,32.8,25.1,30.14,West,275,16.1,16.1,73,0.00,SCT,,0.00,WeatherDisplay:10.37,2013-04-30 15:29:00,
2013-04-30 08:35:00,32.9,25.5,30.14,West,265,16.0,16.0,74,0.00,SCT,,0.00,WeatherDisplay:10.37,2013-04-30 15:35:00,
2013-04-30 08:40:00,32.9,25.5,30.14,WNW,283,13.8,13.8,74,0.00,SCT,,0.00,WeatherDisplay:10.37,2013-04-30 15:40:00,
2013-04-30 08:45:00,34.0,25.9,30.14,West,278,13.0,13.0,72,0.00,SCT,,0.00,WeatherDisplay:10.37,2013-04-30 15:45:00,
2013-04-30 08:50:00,33.9,24.8,30.14,West,277,19.6,19.6,69,0.00,SCT,,0.00,WeatherDisplay:10.37,2013-04-30 15:50:00,
2013-04-30 08:55:00,33.5,24.1,30.14,WNW,288,24.2,24.2,68,0.00,SCT,,0.00,WeatherDisplay:10.37,2013-04-30 15:55:00,
2013-04-30 09:00:00,33.9,25.1,30.14,West,273,12.0,12.0,70,0.00,SCT,,0.00,WeatherDisplay:10.37,2013-04-30 16:00:00,
2013-04-30 09:05:00,34.3,24.8,30.14,West,275,11.5,11.5,68,0.00,SCT,,0.00,WeatherDisplay:10.37,2013-04-30 16:05:00,
2013-04-30 09:10:00,33.9,24.1,30.14,West,280,6.0,6.0,67,0.00,FEW,,0.00,WeatherDisplay:10.37,2013-04-30 16:10:00,
2013-04-30 09:15:00,33.3,24.2,30.14,West,277,11.5,11.5,69,0.00,FEW,,0.00,WeatherDisplay:10.37,2013-04-30 16:15:00,
2013-04-30 09:20:00,33.5,24.8,30.14,WNW,283,12.7,12.7,70,0.00,FEW,,0.00,WeatherDisplay:10.37,2013-04-30 16:20:00,
2013-04-30 09:25:00,34.1,25.3,30.15,NW,323,4.6,4.6,70,0.00,FEW,,0.00,WeatherDisplay:10.37,2013-04-30 16:25:00,
2013-04-30 09:30:00,34.9,25.8,30.14,West,281,10.4,10.4,69,0.00,FEW,,0.00,WeatherDisplay:10.37,2013-04-30 16:30:00,
2013-04-30 09:35:00,34.4,24.9,30.15,NW,325,6.9,6.9,68,0.00,FEW,,0.00,WeatherDisplay:10.37,2013-04-30 16:35:00,
2013-04-30 09:40:00,34.7,24.9,30.14,West,275,9.2,9.2,67,0.00,FEW,,0.00,WeatherDisplay:10.37,2013-04-30 16:40:00,
2013-04-30 09:45:00,35.0,25.5,30.14,NNW,348,4.6,4.6,68,0.00,FEW,,0.00,WeatherDisplay:10.37,2013-04-30 16:45:00,
2013-04-30 09:50:00,35.8,25.5,30.14,NW,321,5.8,5.8,66,0.00,FEW,,0.00,WeatherDisplay:10.37,2013-04-30 16:50:00,
2013-04-30 09:55:00,36.5,25.8,30.14,WNW,302,6.0,6.0,65,0.00,FEW,,0.00,WeatherDisplay:10.37,2013-04-30 16:55:00,
2013-04-30 10:00:00,37.0,26.3,30.15,NNW,330,5.8,5.8,65,0.00,FEW,,0.00,WeatherDisplay:10.37,2013-04-30 17:00:00,
2013-04-30 10:05:00,37.5,26.8,30.15,WNW,292,6.0,6.0,65,0.00,FEW,,0.00,WeatherDisplay:10.37,2013-04-30 17:05:00,
2013-04-30 10:10:00,36.6,24.8,30.15,West,276,11.5,11.5,62,0.00,FEW,,0.00,WeatherDisplay:10.37,2013-04-30 17:10:00,
2013-04-30 10:15:00,37.0,25.6,30.15,West,276,14.0,14.0,63,0.00,FEW,,0.00,WeatherDisplay:10.37,2013-04-30 17:15:00,
2013-04-30 10:20:00,35.6,25.4,30.16,West,279,15.0,15.0,66,0.00,FEW,,0.00,WeatherDisplay:10.37,2013-04-30 17:20:00,
2013-04-30 10:25:00,36.0,25.0,30.16,West,267,16.1,16.1,64,0.00,FEW,,0.00,WeatherDisplay:10.37,2013-04-30 17:25:00,
2013-04-30 10:30:00,35.6,23.9,30.16,West,274,13.8,13.8,62,0.00,FEW,,0.00,WeatherDisplay:10.37,2013-04-30 17:30:00,
2013-04-30 10:35:00,36.1,25.5,30.16,WNW,298,10.4,10.4,65,0.00,FEW,,0.00,WeatherDisplay:10.37,2013-04-30 17:35:00,
2013-04-30 10:40:00,37.0,25.9,30.15,West,279,11.5,11.5,64,0.00,FEW,,0.00,WeatherDisplay:10.37,2013-04-30 17:40:00,
2013-04-30 10:45:00,35.5,24.9,30.16,West,270,17.0,17.0,65,0.00,FEW,,0.00,WeatherDisplay:10.37,2013-04-30 17:45:00,
2013-04-30 10:50:00,35.4,25.9,30.16,WNW,290,11.5,11.5,68,0.00,FEW,,0.00,WeatherDisplay:10.37,2013-04-30 17:50:00,
2013-04-30 10:55:00,36.9,28.0,30.15,NNW,338,5.8,5.8,70,0.00,FEW,,0.00,WeatherDisplay:10.37,2013-04-30 17:55:00,
2013-04-30 11:00:00,38.2,25.9,30.16,WNW,301,4.0,4.0,61,0.00,FEW,,0.00,WeatherDisplay:10.37,2013-04-30 18:00:00,
2013-04-30 11:05:00,38.4,25.3,30.16,ENE,57,9.2,9.2,59,0.00,BKN,,0.00,WeatherDisplay:10.37,2013-04-30 18:05:00,
2013-04-30 11:10:00,38.2,25.9,30.17,NW,320,10.4,10.4,61,0.00,BKN,,0.00,WeatherDisplay:10.37,2013-04-30 18:10:00,
2013-04-30 11:15:00,38.0,26.1,30.17,NW,315,9.2,9.2,62,0.00,BKN,,0.00,WeatherDisplay:10.37,2013-04-30 18:15:00,
2013-04-30 11:20:00,37.9,25.6,30.17,WNW,302,6.9,6.9,61,0.00,BKN,,0.00,WeatherDisplay:10.37,2013-04-30 18:20:00,
2013-04-30 11:25:00,37.8,25.5,30.17,NW,321,6.0,6.0,61,0.00,BKN,,0.00,WeatherDisplay:10.37,2013-04-30 18:25:00,
2013-04-30 11:30:00,38.1,25.4,30.17,NNW,338,4.6,4.6,60,0.00,BKN,,0.00,WeatherDisplay:10.37,2013-04-30 18:30:00,
2013-04-30 11:35:00,38.3,25.6,30.17,NW,322,3.5,3.5,60,0.00,BKN,,0.00,WeatherDisplay:10.37,2013-04-30 18:35:00,
2013-04-30 11:40:00,38.3,25.2,30.17,West,279,5.8,5.8,59,0.00,BKN,,0.00,WeatherDisplay:10.37,2013-04-30 18:40:00,
2013-04-30 11:45:00,38.0,24.5,30.17,WNW,287,17.3,17.3,58,0.00,BKN,,0.00,WeatherDisplay:10.37,2013-04-30 18:45:00,
2013-04-30 11:50:00,38.3,25.6,30.17,West,281,25.3,25.3,60,0.00,BKN,,0.00,WeatherDisplay:10.37,2013-04-30 18:50:00,
2013-04-30 11:55:00,37.6,24.1,30.17,WNW,292,15.0,15.0,58,0.00,BKN,,0.00,WeatherDisplay:10.37,2013-04-30 18:55:00,
2013-04-30 12:00:00,37.6,26.9,30.18,West,269,16.1,16.1,65,0.00,BKN,,0.00,WeatherDisplay:10.37,2013-04-30 19:00:00,
2013-04-30 12:05:00,38.7,26.0,30.17,West,273,17.3,17.3,60,0.00,BKN,,0.00,WeatherDisplay:10.37,2013-04-30 19:05:00,
2013-04-30 12:10:00,38.7,26.0,30.17,WNW,294,13.8,13.8,60,0.00,BKN,,0.00,WeatherDisplay:10.37,2013-04-30 19:10:00,
2013-04-30 12:16:00,39.3,26.6,30.17,West,278,17.3,17.3,60,0.00,BKN,,0.00,WeatherDisplay:10.37,2013-04-30 19:16:00,
2013-04-30 12:21:00,38.7,24.8,30.17,WNW,290,29.9,29.9,57,0.00,BKN,,0.00,WeatherDisplay:10.37,2013-04-30 19:21:00,
2013-04-30 12:26:00,39.4,23.2,30.16,West,279,20.7,20.7,52,0.00,BKN,,0.00,WeatherDisplay:10.37,2013-04-30 19:26:00,
2013-04-30 12:31:00,39.8,26.6,30.16,WNW,294,6.9,6.9,59,0.00,BKN,,0.00,WeatherDisplay:10.37,2013-04-30 19:31:00,
2013-04-30 12:36:00,40.8,25.9,30.17,WNW,288,8.1,8.1,55,0.00,BKN,,0.00,WeatherDisplay:10.37,2013-04-30 19:36:00,
2013-04-30 12:41:00,42.3,27.3,30.16,WNW,286,6.9,8.1,55,0.00,BKN,,0.00,WeatherDisplay:10.37,2013-04-30 19:41:00,
2013-04-30 12:46:00,42.0,24.7,30.16,WNW,295,17.3,17.3,50,0.00,BKN,,0.00,WeatherDisplay:10.37,2013-04-30 19:46:00,
2013-04-30 12:51:00,42.2,24.4,30.16,WNW,284,10.4,10.4,49,0.00,BKN,,0.00,WeatherDisplay:10.37,2013-04-30 19:51:00,
2013-04-30 12:56:00,42.3,25.0,30.16,WNW,295,19.6,19.6,50,0.00,BKN,,0.00,WeatherDisplay:10.37,2013-04-30 19:56:00,
2013-04-30 13:01:00,42.1,23.8,30.16,WNW,298,9.2,9.2,48,0.00,BKN,,0.00,WeatherDisplay:10.37,2013-04-30 20:01:00,
2013-04-30 13:06:00,40.4,21.7,30.17,West,269,16.1,16.1,47,0.00,BKN,,0.00,WeatherDisplay:10.37,2013-04-30 20:06:00,
2013-04-30 13:11:00,41.3,23.6,30.17,WNW,299,11.5,11.5,49,0.00,BKN,,0.00,WeatherDisplay:10.37,2013-04-30 20:11:00,
2013-04-30 13:16:00,41.2,23.9,30.17,WNW,294,7.0,7.0,50,0.00,BKN,,0.00,WeatherDisplay:10.37,2013-04-30 20:16:00,
2013-04-30 13:21:00,40.2,26.2,30.18,North,355,5.8,5.8,57,0.00,BKN,,0.00,WeatherDisplay:10.37,2013-04-30 20:21:00,
2013-04-30 13:26:00,38.6,27.1,30.19,NW,309,5.8,5.8,63,0.00,BKN,,0.00,WeatherDisplay:10.37,2013-04-30 20:26:00,
2013-04-30 13:31:00,36.6,23.6,30.20,West,279,16.1,16.1,59,0.00,BKN,,0.00,WeatherDisplay:10.37,2013-04-30 20:31:00,
2013-04-30 13:36:00,34.4,24.2,30.21,West,277,10.4,10.4,66,0.00,BKN,,0.00,WeatherDisplay:10.37,2013-04-30 20:36:00,
2013-04-30 13:41:00,34.4,26.0,30.22,West,273,3.5,3.5,71,0.00,BKN,,0.00,WeatherDisplay:10.37,2013-04-30 20:41:00,
2013-04-30 13:46:00,34.6,26.8,30.22,West,274,17.3,17.3,73,0.00,BKN,,0.00,WeatherDisplay:10.37,2013-04-30 20:46:00,
2013-04-30 13:51:00,33.5,28.0,30.22,West,272,6.0,6.0,80,0.00,BKN,,0.00,WeatherDisplay:10.37,2013-04-30 20:51:00,
2013-04-30 13:56:00,33.6,27.8,30.22,West,269,9.0,9.0,79,0.00,BKN,,0.00,WeatherDisplay:10.37,2013-04-30 20:56:00,
2013-04-30 14:01:00,34.4,27.6,30.22,West,277,6.9,6.9,76,0.00,BKN,,0.00,WeatherDisplay:10.37,2013-04-30 21:01:00,
2013-04-30 14:06:00,36.2,30.0,30.21,West,277,3.5,3.5,78,0.00,BKN,,0.00,WeatherDisplay:10.37,2013-04-30 21:06:00,
2013-04-30 14:11:00,38.3,29.0,30.20,NNW,338,5.8,5.8,69,0.00,BKN,,0.00,WeatherDisplay:10.37,2013-04-30 21:11:00,
2013-04-30 14:16:00,40.4,29.2,30.19,NW,317,4.0,4.0,64,0.00,BKN,,0.00,WeatherDisplay:10.37,2013-04-30 21:16:00,
2013-04-30 14:21:00,42.3,28.6,30.19,WNW,292,6.9,6.9,58,0.00,BKN,,0.00,WeatherDisplay:10.37,2013-04-30 21:21:00,
2013-04-30 14:26:00,42.5,27.9,30.19,NNW,338,12.7,12.7,56,0.00,BKN,,0.00,WeatherDisplay:10.37,2013-04-30 21:26:00,
2013-04-30 14:31:00,42.8,26.8,30.20,WNW,291,6.9,6.9,53,0.00,BKN,,0.00,WeatherDisplay:10.37,2013-04-30 21:31:00,
2013-04-30 14:36:00,41.5,25.2,30.19,NNW,329,9.0,9.0,52,0.00,BKN,,0.00,WeatherDisplay:10.37,2013-04-30 21:36:00,
2013-04-30 14:41:00,40.6,25.2,30.20,NW,325,9.2,9.2,54,0.00,BKN,,0.00,WeatherDisplay:10.37,2013-04-30 21:41:00,
2013-04-30 14:46:00,39.2,27.3,30.22,NW,324,11.5,11.5,62,0.00,BKN,,0.00,WeatherDisplay:10.37,2013-04-30 21:46:00,
2013-04-30 14:51:00,36.9,28.4,30.23,WNW,300,12.7,12.7,71,0.00,BKN,,0.00,WeatherDisplay:10.37,2013-04-30 21:51:00,
2013-04-30 14:56:00,34.7,27.9,30.25,North,5,4.6,4.6,76,0.00,BKN,,0.00,WeatherDisplay:10.37,2013-04-30 21:56:00,
2013-04-30 15:01:00,33.7,28.2,30.25,North,355,6.0,6.0,80,0.00,-RA,,0.00,WeatherDisplay:10.37,2013-04-30 22:01:00,
2013-04-30 15:06:00,33.2,28.0,30.25,NNW,340,7.0,7.0,81,0.00,-RA,,0.00,WeatherDisplay:10.37,2013-04-30 22:06:00,
2013-04-30 15:11:00,33.2,28.6,30.26,WNW,295,8.1,8.1,83,0.00,-RA,,0.00,WeatherDisplay:10.37,2013-04-30 22:11:00,
2013-04-30 15:16:00,33.3,28.7,30.26,NNW,333,9.2,9.2,83,0.00,-RA,,0.00,WeatherDisplay:10.37,2013-04-30 22:16:00,
2013-04-30 15:21:00,33.3,29.0,30.26,WNW,289,6.0,6.0,84,0.00,-RA,,0.00,WeatherDisplay:10.37,2013-04-30 22:21:00,
2013-04-30 15:26:00,33.0,29.0,30.27,WNW,301,5.8,5.8,85,0.00,-RA,,0.00,WeatherDisplay:10.37,2013-04-30 22:26:00,
2013-04-30 15:31:00,32.8,29.1,30.27,NW,311,4.6,4.6,86,0.00,-RA,,0.00,WeatherDisplay:10.37,2013-04-30 22:31:00,
2013-04-30 15:36:00,32.7,29.0,30.27,NW,315,3.5,3.5,86,0.00,-RA,,0.00,WeatherDisplay:10.37,2013-04-30 22:36:00,
2013-04-30 15:41:00,33.1,29.7,30.27,WNW,286,5.0,5.0,87,0.00,-RA,,0.00,WeatherDisplay:10.37,2013-04-30 22:41:00,
2013-04-30 15:46:00,33.4,29.1,30.27,West,279,10.0,10.0,84,0.00,-RA,,0.00,WeatherDisplay:10.37,2013-04-30 22:46:00,
2013-04-30 15:51:00,34.1,29.5,30.26,West,277,9.2,9.2,83,0.00,-RA,,0.00,WeatherDisplay:10.37,2013-04-30 22:51:00,
2013-04-30 15:56:00,34.8,29.3,30.26,West,275,13.8,13.8,80,0.00,-RA,,0.00,WeatherDisplay:10.37,2013-04-30 22:56:00,
2013-04-30 16:01:00,36.0,29.8,30.26,WNW,294,13.8,13.8,78,0.00,OVC,,0.00,WeatherDisplay:10.37,2013-04-30 23:01:00,
2013-04-30 16:06:00,37.1,31.2,30.26,WNW,302,10.4,10.4,79,0.00,OVC,,0.00,WeatherDisplay:10.37,2013-04-30 23:06:00,
2013-04-30 16:11:00,38.4,31.2,30.26,WNW,294,9.2,9.2,75,0.00,OVC,,0.00,WeatherDisplay:10.37,2013-04-30 23:11:00,
2013-04-30 16:16:00,38.6,30.7,30.25,WNW,291,13.8,13.8,73,0.00,OVC,,0.00,WeatherDisplay:10.37,2013-04-30 23:16:00,
2013-04-30 16:21:00,37.7,29.8,30.26,WNW,294,19.6,19.6,73,0.00,OVC,,0.00,WeatherDisplay:10.37,2013-04-30 23:21:00,
2013-04-30 16:26:00,36.8,29.9,30.26,WNW,289,16.0,16.0,76,0.00,OVC,,0.00,WeatherDisplay:10.37,2013-04-30 23:26:00,
2013-04-30 16:31:00,37.2,30.3,30.26,WNW,291,10.4,10.4,76,0.00,OVC,,0.00,WeatherDisplay:10.37,2013-04-30 23:31:00,
2013-04-30 16:36:00,38.3,30.7,30.26,WNW,286,19.6,19.6,74,0.00,OVC,,0.01,WeatherDisplay:10.37,2013-04-30 23:36:00,
2013-04-30 16:42:00,37.7,29.1,30.26,West,275,13.8,15.5,71,0.01,RA,,0.01,WeatherDisplay:10.37,2013-04-30 23:42:00,
2013-04-30 16:47:00,37.2,29.3,30.27,WNW,295,17.3,17.3,73,0.01,RA,,0.01,WeatherDisplay:10.37,2013-04-30 23:47:00,
2013-04-30 16:52:00,37.7,29.1,30.26,WNW,284,12.7,12.7,71,0.01,OVC,,0.01,WeatherDisplay:10.37,2013-04-30 23:52:00,
2013-04-30 16:57:00,37.4,27.8,30.26,West,271,17.3,17.3,68,0.01,OVC,,0.01,WeatherDisplay:10.37,2013-04-30 23:57:00,
2013-04-30 17:02:00,37.1,28.2,30.26,WNW,282,18.4,18.4,70,0.01,BKN,,0.01,WeatherDisplay:10.37,2013-05-01 00:02:00,
2013-04-30 17:07:00,37.5,28.6,30.26,WNW,294,11.5,11.5,70,0.01,BKN,,0.01,WeatherDisplay:10.37,2013-05-01 00:07:00,
2013-04-30 17:12:00,38.0,28.7,30.27,West,270,15.0,15.0,69,0.01,BKN,,0.01,WeatherDisplay:10.37,2013-05-01 00:12:00,
2013-04-30 17:17:00,37.8,27.8,30.27,West,279,19.6,19.6,67,0.01,BKN,,0.01,WeatherDisplay:10.37,2013-05-01 00:17:00,
2013-04-30 17:22:00,37.6,27.3,30.28,WNW,298,16.1,16.1,66,0.02,RA,,0.02,WeatherDisplay:10.37,2013-05-01 00:22:00,
2013-04-30 17:27:00,37.7,28.4,30.28,WNW,289,11.5,11.5,69,0.02,RA,,0.02,WeatherDisplay:10.37,2013-05-01 00:27:00,
2013-04-30 17:32:00,38.2,27.1,30.28,West,277,12.7,12.7,64,0.02,BKN,,0.02,WeatherDisplay:10.37,2013-05-01 00:32:00,
2013-04-30 17:37:00,37.9,26.4,30.28,West,278,20.7,20.7,63,0.01,BKN,,0.02,WeatherDisplay:10.37,2013-05-01 00:37:00,
2013-04-30 17:42:00,37.8,27.1,30.28,NW,309,5.8,5.8,65,0.01,BKN,,0.02,WeatherDisplay:10.37,2013-05-01 00:42:00,
2013-04-30 17:47:00,38.1,28.1,30.29,North,9,11.5,11.5,67,0.01,BKN,,0.02,WeatherDisplay:10.37,2013-05-01 00:47:00,
2013-04-30 17:52:00,36.1,29.3,30.31,NNE,26,11.5,11.5,76,0.01,BKN,,0.02,WeatherDisplay:10.37,2013-05-01 00:52:00,
2013-04-30 17:57:00,34.4,28.9,30.31,North,350,13.8,13.8,80,0.02,RA,,0.03,WeatherDisplay:10.37,2013-05-01 00:57:00,
2013-04-30 18:02:00,33.1,28.8,30.32,NE,36,19.6,19.6,84,0.02,RA,,0.03,WeatherDisplay:10.37,2013-05-01 01:02:00,
2013-04-30 18:07:00,32.1,28.7,30.32,NNW,347,11.5,11.5,87,0.02,OVC,,0.03,WeatherDisplay:10.37,2013-05-01 01:07:00,
2013-04-30 18:12:00,31.5,28.4,30.32,North,360,12.7,12.7,88,0.02,OVC,,0.03,WeatherDisplay:10.37,2013-05-01 01:12:00,
2013-04-30 18:17:00,31.3,28.4,30.33,NNE,27,10.4,10.4,89,0.02,OVC,,0.03,WeatherDisplay:10.37,2013-05-01 01:17:00,
2013-04-30 18:22:00,31.0,28.4,30.33,NNE,25,6.9,6.9,90,0.01,OVC,,0.03,WeatherDisplay:10.37,2013-05-01 01:22:00,
2013-04-30 18:27:00,31.0,28.4,30.33,North,355,3.0,3.0,90,0.01,OVC,,0.03,WeatherDisplay:10.37,2013-05-01 01:27:00,
2013-04-30 18:32:00,31.0,28.4,30.33,NW,312,4.0,4.0,90,0.01,OVC,,0.03,WeatherDisplay:10.37,2013-05-01 01:32:00,
2013-04-30 18:37:00,31.0,28.7,30.34,NNW,330,5.8,5.8,91,0.01,OVC,,0.03,WeatherDisplay:10.37,2013-05-01 01:37:00,
2013-04-30 18:42:00,31.0,28.7,30.34,NNW,331,3.5,3.5,91,0.01,OVC,,0.03,WeatherDisplay:10.37,2013-05-01 01:42:00,
2013-04-30 18:47:00,31.1,28.8,30.34,NNW,331,3.5,3.5,91,0.01,OVC,,0.03,WeatherDisplay:10.37,2013-05-01 01:47:00,
2013-04-30 18:52:00,31.1,28.8,30.35,NW,313,3.5,3.5,91,0.01,OVC,,0.03,WeatherDisplay:10.37,2013-05-01 01:52:00,
2013-04-30 18:57:00,31.0,28.7,30.34,West,263,11.0,11.0,91,0.00,OVC,,0.03,WeatherDisplay:10.37,2013-05-01 01:57:00,
2013-04-30 19:02:00,30.9,28.6,30.34,WSW,248,10.4,10.4,91,0.00,CLR,,0.03,WeatherDisplay:10.37,2013-05-01 02:02:00,
2013-04-30 19:07:00,31.0,28.9,30.33,SW,223,10.4,10.4,92,0.00,CLR,,0.03,WeatherDisplay:10.37,2013-05-01 02:07:00,
2013-04-30 19:13:00,31.0,28.9,30.33,SW,235,10.4,10.4,92,0.00,CLR,,0.03,WeatherDisplay:10.37,2013-05-01 02:13:00,
2013-04-30 19:18:00,31.0,28.7,30.33,SW,234,5.8,5.8,91,0.00,CLR,,0.03,WeatherDisplay:10.37,2013-05-01 02:18:00,
2013-04-30 19:23:00,31.2,28.9,30.34,SW,235,6.0,6.0,91,0.00,CLR,,0.03,WeatherDisplay:10.37,2013-05-01 02:23:00,
2013-04-30 19:28:00,31.2,28.9,30.34,SW,234,4.0,4.0,91,0.00,CLR,,0.03,WeatherDisplay:10.37,2013-05-01 02:28:00,
2013-04-30 19:33:00,31.1,28.5,30.34,SW,234,5.0,5.0,90,0.00,CLR,,0.03,WeatherDisplay:10.37,2013-05-01 02:33:00,
2013-04-30 19:38:00,31.1,28.5,30.34,SW,234,3.5,3.5,90,0.00,CLR,,0.03,WeatherDisplay:10.37,2013-05-01 02:38:00,
2013-04-30 19:43:00,31.0,28.4,30.35,SW,234,5.0,5.0,90,0.00,CLR,,0.03,WeatherDisplay:10.37,2013-05-01 02:43:00,
2013-04-30 19:48:00,30.9,28.3,30.35,SW,235,4.0,4.0,90,0.00,CLR,,0.03,WeatherDisplay:10.37,2013-05-01 02:48:00,
2013-04-30 19:53:00,30.8,28.2,30.35,SW,235,3.5,3.5,90,0.00,CLR,,0.03,WeatherDisplay:10.37,2013-05-01 02:53:00,
2013-04-30 19:58:00,30.7,28.1,30.36,SW,235,3.5,3.5,90,0.00,CLR,,0.03,WeatherDisplay:10.37,2013-05-01 02:58:00,
2013-04-30 20:03:00,30.7,28.1,30.35,SW,235,4.0,4.0,90,0.00,CLR,,0.03,WeatherDisplay:10.37,2013-05-01 03:03:00,
2013-04-30 20:08:00,30.6,28.0,30.35,WSW,240,3.5,3.5,90,0.00,CLR,,0.03,WeatherDisplay:10.37,2013-05-01 03:08:00,
2013-04-30 20:13:00,30.6,28.0,30.36,WSW,250,3.5,3.5,90,0.00,CLR,,0.03,WeatherDisplay:10.37,2013-05-01 03:13:00,
2013-04-30 20:18:00,30.6,27.7,30.36,WSW,250,3.5,3.6,89,0.00,CLR,,0.03,WeatherDisplay:10.37,2013-05-01 03:18:00,
2013-04-30 20:23:00,30.7,27.6,30.36,WSW,250,3.5,3.5,88,0.00,CLR,,0.03,WeatherDisplay:10.37,2013-05-01 03:23:00,
2013-04-30 20:28:00,30.7,27.6,30.36,WSW,254,5.8,5.8,88,0.00,CLR,,0.03,WeatherDisplay:10.37,2013-05-01 03:28:00,
2013-04-30 20:33:00,30.7,27.3,30.36,WSW,256,3.5,3.5,87,0.00,CLR,,0.03,WeatherDisplay:10.37,2013-05-01 03:33:00,
2013-04-30 20:38:00,30.3,26.9,30.36,WSW,256,3.5,3.5,87,0.00,CLR,,0.03,WeatherDisplay:10.37,2013-05-01 03:38:00,
2013-04-30 20:43:00,29.9,26.5,30.36,WSW,256,3.5,3.5,87,0.00,CLR,,0.03,WeatherDisplay:10.37,2013-05-01 03:43:00,
2013-04-30 20:48:00,30.2,26.8,30.37,WSW,256,3.5,3.5,87,0.00,CLR,,0.03,WeatherDisplay:10.37,2013-05-01 03:48:00,
2013-04-30 20:53:00,30.5,26.8,30.37,WSW,256,3.5,3.5,86,0.00,CLR,,0.03,WeatherDisplay:10.37,2013-05-01 03:53:00,
2013-04-30 20:58:00,30.7,26.7,30.37,WSW,256,2.0,2.0,85,0.00,CLR,,0.03,WeatherDisplay:10.37,2013-05-01 03:58:00,
2013-04-30 21:01:00,30.6,26.6,30.35,WSW,256,3.5,3.5,85,0.00,CLR,,0.03,WeatherDisplay:10.37,2013-05-01 04:01:00,
2013-04-30 21:06:00,30.9,26.9,30.36,West,259,3.5,3.5,85,0.00,OVC,,0.03,WeatherDisplay:10.37,2013-05-01 04:06:00,
2013-04-30 21:11:00,30.8,26.5,30.36,West,259,2.0,2.0,84,0.00,OVC,,0.03,WeatherDisplay:10.37,2013-05-01 04:11:00,
2013-04-30 21:16:00,30.4,26.1,30.37,West,259,2.3,2.3,84,0.00,OVC,,0.03,WeatherDisplay:10.37,2013-05-01 04:16:00,
2013-04-30 21:21:00,30.1,26.1,30.37,West,259,2.3,2.3,85,0.00,OVC,,0.03,WeatherDisplay:10.37,2013-05-01 04:21:00,
2013-04-30 21:26:00,29.8,25.8,30.37,West,259,0.0,0.0,85,0.00,OVC,,0.03,WeatherDisplay:10.37,2013-05-01 04:26:00,
2013-04-30 21:31:00,29.4,25.4,30.37,West,259,0.0,0.0,85,0.00,OVC,,0.03,WeatherDisplay:10.37,2013-05-01 04:31:00,
2013-04-30 21:36:00,29.0,25.3,30.37,West,259,1.1,1.1,86,0.00,OVC,,0.03,WeatherDisplay:10.37,2013-05-01 04:36:00,
2013-04-30 21:41:00,28.9,25.2,30.37,West,259,3.5,3.5,86,0.00,OVC,,0.03,WeatherDisplay:10.37,2013-05-01 04:41:00,
2013-04-30 21:46:00,28.9,25.2,30.37,West,259,0.0,0.0,86,0.00,OVC,,0.03,WeatherDisplay:10.37,2013-05-01 04:46:00,
2013-04-30 21:51:00,28.9,25.2,30.37,West,259,0.0,0.0,86,0.00,OVC,,0.03,WeatherDisplay:10.37,2013-05-01 04:51:00,
2013-04-30 21:56:00,29.0,25.3,30.38,West,259,2.0,2.0,86,0.00,OVC,,0.03,WeatherDisplay:10.37,2013-05-01 04:56:00,
2013-04-30 22:01:00,28.7,24.8,30.38,West,259,3.5,3.5,85,0.00,CLR,,0.03,WeatherDisplay:10.37,2013-05-01 05:01:00,
2013-04-30 22:06:00,28.2,24.8,30.38,West,259,2.3,2.3,87,0.00,CLR,,0.03,WeatherDisplay:10.37,2013-05-01 05:06:00,
2013-04-30 22:11:00,28.0,24.6,30.38,West,259,3.5,3.5,87,0.00,CLR,,0.03,WeatherDisplay:10.37,2013-05-01 05:11:00,
2013-04-30 22:16:00,28.4,25.0,30.39,SE,142,5.8,5.8,87,0.00,CLR,,0.03,WeatherDisplay:10.37,2013-05-01 05:16:00,
2013-04-30 22:21:00,28.6,25.2,30.39,SE,142,4.0,4.0,87,0.00,CLR,,0.03,WeatherDisplay:10.37,2013-05-01 05:21:00,
2013-04-30 22:26:00,28.5,25.1,30.39,SE,142,3.5,3.5,87,0.00,CLR,,0.03,WeatherDisplay:10.37,2013-05-01 05:26:00,
2013-04-30 22:31:00,28.6,24.9,30.39,SE,142,2.3,0.0,86,0.00,CLR,,0.03,WeatherDisplay:10.37,2013-05-01 05:31:00,
2013-04-30 22:36:00,28.8,25.1,30.39,SE,142,1.1,1.1,86,0.00,CLR,,0.03,WeatherDisplay:10.37,2013-05-01 05:36:00,
2013-04-30 22:41:00,28.5,24.6,30.39,SE,142,0.0,0.0,85,0.00,CLR,,0.03,WeatherDisplay:10.37,2013-05-01 05:41:00,
2013-04-30 22:46:00,28.1,24.2,30.40,SE,142,3.5,3.5,85,0.00,CLR,,0.03,WeatherDisplay:10.37,2013-05-01 05:46:00,
2013-04-30 22:51:00,27.8,23.9,30.40,SE,142,1.1,1.1,85,0.00,CLR,,0.03,WeatherDisplay:10.37,2013-05-01 05:51:00,
2013-04-30 22:56:00,27.6,23.7,30.40,SE,142,0.0,0.0,85,0.00,CLR,,0.03,WeatherDisplay:10.37,2013-05-01 05:56:00,
2013-04-30 23:01:00,27.6,23.7,30.41,SE,142,3.5,3.5,85,0.00,CLR,,0.03,WeatherDisplay:10.37,2013-05-01 06:01:00,
2013-04-30 23:06:00,27.3,23.4,30.41,SE,142,0.0,0.0,85,0.00,CLR,,0.03,WeatherDisplay:10.37,2013-05-01 06:06:00,
2013-04-30 23:11:00,27.4,23.8,30.41,SE,142,0.0,0.0,86,0.00,CLR,,0.03,WeatherDisplay:10.37,2013-05-01 06:11:00,
2013-04-30 23:16:00,27.6,23.7,30.42,SE,142,0.0,0.0,85,0.00,CLR,,0.03,WeatherDisplay:10.37,2013-05-01 06:16:00,
2013-04-30 23:22:00,27.9,24.0,30.42,SE,142,0.0,0.0,85,0.00,CLR,,0.03,WeatherDisplay:10.37,2013-05-01 06:22:00,
2013-04-30 23:27:00,28.0,23.8,30.42,SE,142,0.0,0.0,84,0.00,CLR,,0.03,WeatherDisplay:10.37,2013-05-01 06:27:00,
2013-04-30 23:32:00,27.9,23.7,30.42,SE,142,0.0,0.0,84,0.00,CLR,,0.03,WeatherDisplay:10.37,2013-05-01 06:32:00,
2013-04-30 23:37:00,27.8,23.6,30.42,SE,142,0.0,0.0,84,0.00,CLR,,0.03,WeatherDisplay:10.37,2013-05-01 06:37:00,
2013-04-30 23:42:00,27.6,23.4,30.42,SE,142,0.0,0.0,84,0.00,CLR,,0.03,WeatherDisplay:10.37,2013-05-01 06:42:00,
2013-04-30 23:47:00,27.5,23.6,30.42,SE,142,0.0,0.0,85,0.00,CLR,,0.03,WeatherDisplay:10.37,2013-05-01 06:47:00,
2013-04-30 23:52:00,27.1,23.2,30.42,SE,142,0.0,0.0,85,0.00,CLR,,0.03,WeatherDisplay:10.37,2013-05-01 06:52:00,
2013-04-30 23:57:00,26.6,22.4,30.43,SE,142,2.3,2.3,84,0.00,CLR,,0.03,WeatherDisplay:10.37,2013-05-01 06:57:00,